星链-2534 (STARLINK-2534 )

导读

STARLINK-2534是美国SpaceX公司星链星座中的一颗V1.5代低轨通信卫星,于北京时间2021年4月29日发射入轨。星链星座旨在为全球尤其是偏远地区提供高速宽带互联网服务,该卫星配备氪离子推进器,运行在近地轨道,依靠相控阵天线实现信号收发,支持网络接入服务,是SpaceX全球卫星互联网组网的重要组成部分,服役至今已近5年,仍正常参与星座运营提供通信服务。

基本信息
目录编号:
48311
目录名称:
STARLINK-2534
国际标识:
2021-036AM
轨道中心:
EARTH
卫星名称:
星链-2534
卫星全名:
星链-2534 (STARLINK-2534 )
卫星状态:
在轨 (已飞行1876 天)
发射日期:
2021-04-29 UTC
国别 :
美国 (US)
星等 :
--
轨道信息
数据来源 国际轨道数据
星历时间: 2026-06-18T02:45:19+0800
21小时前
查看轨道信息
半长轴: 6848.873km
偏心率: 0.0001131
轨道倾角: 53.159°
近地点辐角 99.713°
升交点赤经 343.028°
平近点角 260.400°
近地点: 469.961km
远地点: 471.511km
周期: 94.013分钟
每日圈数: 15.317015
详细信息
固有亮度:
5
最大亮度:
2.5
卫星平台:
Starlink V1.0
覆盖范围:
全球
运营商:
太空探索技术公司
运营商所在国:
美国
制造商(研发单位):
太空探索技术公司
制造商所在国:
美国
使用方式:
暂无
卫星简介
星链(Starlink)计划是由太空探索技术公司(SpaceX)提出的一个巨型低轨卫星互联网星座项目,计划在2019年至2024年间在太空搭建由约1.2万颗卫星组成的“星链”网络,其中1584颗将部署在地球上空550千米处的近地轨道,并从2020年开始工作。该卫星仍在工作。
2D轨道图
3D轨道图
轨道高度分析图
轨道倾角分析图
轨道综合分析图
查看轨道综合分析图